Time,TemperatureF,DewpointF,PressureIn,WindDirection,WindDirectionDegrees,WindSpeedMPH,WindSpeedGustMPH,Humidity,HourlyPrecipIn,Conditions,Clouds,dailyrainin,SoftwareType,DateUTC
2013-03-28 00:07:00,71.9,33.0,29.85,ENE,60,6.0,10.0,24,0.00,,,0.00,weatherlink.com 1.10,2013-03-28 07:07:00,
2013-03-28 00:22:00,72.0,33.0,29.85,East,84,9.0,12.0,24,0.00,,,0.00,weatherlink.com 1.10,2013-03-28 07:22:00,
2013-03-28 00:37:00,71.9,33.0,29.85,ENE,72,8.0,12.0,24,0.00,,,0.00,weatherlink.com 1.10,2013-03-28 07:37:00,
2013-03-28 00:52:00,71.9,34.0,29.85,ENE,77,10.0,12.0,25,0.00,,,0.00,weatherlink.com 1.10,2013-03-28 07:52:00,
2013-03-28 01:07:00,71.4,34.0,29.86,ENE,62,7.0,11.0,25,0.00,,,0.00,weatherlink.com 1.10,2013-03-28 08:07:00,
2013-03-28 01:22:00,70.8,35.0,29.86,ENE,58,6.0,10.0,27,0.00,,,0.00,weatherlink.com 1.10,2013-03-28 08:22:00,
2013-03-28 01:37:00,70.4,35.0,29.86,ENE,58,8.0,9.0,27,0.00,,,0.00,weatherlink.com 1.10,2013-03-28 08:37:00,
2013-03-28 01:52:00,70.2,35.0,29.86,East,84,8.0,12.0,28,0.00,,,0.00,weatherlink.com 1.10,2013-03-28 08:52:00,
2013-03-28 02:07:00,69.9,36.0,29.86,ENE,68,6.0,11.0,29,0.00,,,0.00,weatherlink.com 1.10,2013-03-28 09:07:00,
2013-03-28 02:22:00,69.6,37.0,29.86,ENE,60,6.0,10.0,30,0.00,,,0.00,weatherlink.com 1.10,2013-03-28 09:22:00,
2013-03-28 02:37:00,69.2,36.0,29.86,East,80,6.0,9.0,30,0.00,,,0.00,weatherlink.com 1.10,2013-03-28 09:37:00,
2013-03-28 02:52:00,69.0,36.0,29.86,East,84,10.0,11.0,30,0.00,,,0.00,weatherlink.com 1.10,2013-03-28 09:52:00,
2013-03-28 03:07:00,69.1,37.0,29.86,ENE,72,10.0,11.0,31,0.00,,,0.00,weatherlink.com 1.10,2013-03-28 10:07:00,
2013-03-28 03:22:00,69.0,38.0,29.86,ENE,69,8.0,11.0,32,0.00,,,0.00,weatherlink.com 1.10,2013-03-28 10:22:00,
2013-03-28 03:37:00,69.0,38.0,29.86,ENE,63,5.0,10.0,32,0.00,,,0.00,weatherlink.com 1.10,2013-03-28 10:37:00,
2013-03-28 03:52:00,69.1,38.0,29.86,ENE,78,6.0,10.0,32,0.00,,,0.00,weatherlink.com 1.10,2013-03-28 10:52:00,
2013-03-28 04:07:00,68.8,38.0,29.86,East,92,5.0,10.0,32,0.00,,,0.00,weatherlink.com 1.10,2013-03-28 11:07:00,
2013-03-28 04:22:00,68.4,38.0,29.87,ESE,117,4.0,10.0,33,0.00,,,0.00,weatherlink.com 1.10,2013-03-28 11:22:00,
2013-03-28 04:37:00,68.0,38.0,29.87,East,83,4.0,10.0,34,0.00,,,0.00,weatherlink.com 1.10,2013-03-28 11:37:00,
2013-03-28 04:52:00,68.1,39.0,29.87,SE,139,4.0,10.0,34,0.00,,,0.00,weatherlink.com 1.10,2013-03-28 11:52:00,
2013-03-28 05:07:00,67.5,38.0,29.88,East,85,6.0,9.0,34,0.00,,,0.00,weatherlink.com 1.10,2013-03-28 12:07:00,
2013-03-28 05:22:00,67.2,38.0,29.88,ESE,107,5.0,10.0,34,0.00,,,0.00,weatherlink.com 1.10,2013-03-28 12:22:00,
2013-03-28 05:37:00,66.6,37.0,29.88,East,86,2.0,5.0,34,0.00,,,0.00,weatherlink.com 1.10,2013-03-28 12:37:00,
2013-03-28 05:52:00,65.2,37.0,29.89,ESE,114,1.0,2.0,36,0.00,,,0.00,weatherlink.com 1.10,2013-03-28 12:52:00,
2013-03-28 06:07:00,64.9,37.0,29.90,ESE,111,3.0,5.0,36,0.00,,,0.00,weatherlink.com 1.10,2013-03-28 13:07:00,
2013-03-28 06:23:00,64.2,37.0,29.91,East,101,3.0,5.0,37,0.00,,,0.00,weatherlink.com 1.10,2013-03-28 13:23:00,
2013-03-28 06:38:00,65.6,37.0,29.91,ENE,75,3.0,6.0,35,0.00,,,0.00,weatherlink.com 1.10,2013-03-28 13:38:00,
2013-03-28 06:53:00,66.1,37.0,29.92,ESE,110,3.0,6.0,34,0.00,,,0.00,weatherlink.com 1.10,2013-03-28 13:53:00,
2013-03-28 07:08:00,66.3,38.0,29.92,ENE,75,2.0,5.0,35,0.00,,,0.00,weatherlink.com 1.10,2013-03-28 14:08:00,
2013-03-28 07:23:00,67.1,38.0,29.93,ENE,70,3.0,6.0,34,0.00,,,0.00,weatherlink.com 1.10,2013-03-28 14:23:00,
2013-03-28 07:38:00,68.1,39.0,29.93,ENE,75,2.0,5.0,34,0.00,,,0.00,weatherlink.com 1.10,2013-03-28 14:38:00,
2013-03-28 07:53:00,68.5,39.0,29.93,SE,131,2.0,6.0,34,0.00,,,0.00,weatherlink.com 1.10,2013-03-28 14:53:00,
2013-03-28 08:08:00,68.6,40.0,29.94,ESE,103,5.0,7.0,36,0.00,,,0.00,weatherlink.com 1.10,2013-03-28 15:08:00,
2013-03-28 08:23:00,70.5,40.0,29.94,ESE,105,4.0,12.0,33,0.00,,,0.00,weatherlink.com 1.10,2013-03-28 15:23:00,
2013-03-28 08:38:00,71.2,39.0,29.95,ESE,105,10.0,10.0,31,0.00,,,0.00,weatherlink.com 1.10,2013-03-28 15:38:00,
2013-03-28 08:53:00,71.7,39.0,29.96,ESE,105,1.0,9.0,31,0.00,,,0.00,weatherlink.com 1.10,2013-03-28 15:53:00,
2013-03-28 09:08:00,70.7,42.0,29.96,WSW,250,2.0,5.0,35,0.00,,,0.00,weatherlink.com 1.10,2013-03-28 16:08:00,
2013-03-28 09:23:00,72.4,38.0,29.97,East,96,7.0,9.0,29,0.00,,,0.00,weatherlink.com 1.10,2013-03-28 16:23:00,
2013-03-28 09:38:00,73.5,39.0,29.97,SE,140,5.0,10.0,29,0.00,,,0.00,weatherlink.com 1.10,2013-03-28 16:38:00,
2013-03-28 09:53:00,74.1,39.0,29.97,SE,141,4.0,12.0,28,0.00,,,0.00,weatherlink.com 1.10,2013-03-28 16:53:00,
2013-03-28 10:23:00,74.6,38.0,29.97,SE,134,9.0,13.0,27,0.00,,,0.00,weatherlink.com 1.10,2013-03-28 17:23:00,
2013-03-28 10:38:00,76.1,39.0,29.97,ENE,63,9.0,10.0,26,0.00,,,0.00,weatherlink.com 1.10,2013-03-28 17:38:00,
2013-03-28 10:53:00,76.1,39.0,29.97,East,101,11.0,11.0,26,0.00,,,0.00,weatherlink.com 1.10,2013-03-28 17:53:00,
2013-03-28 11:08:00,77.5,39.0,29.97,ESE,104,5.0,10.0,25,0.00,,,0.00,weatherlink.com 1.10,2013-03-28 18:08:00,
2013-03-28 11:23:00,77.4,39.0,29.97,ENE,68,7.0,10.0,25,0.00,,,0.00,weatherlink.com 1.10,2013-03-28 18:23:00,
2013-03-28 11:38:00,77.8,38.0,29.96,SE,131,2.0,10.0,24,0.00,,,0.00,weatherlink.com 1.10,2013-03-28 18:38:00,
2013-03-28 11:53:00,79.4,38.0,29.95,East,94,2.0,7.0,23,0.00,,,0.00,weatherlink.com 1.10,2013-03-28 18:53:00,
2013-03-28 12:08:00,78.7,37.0,29.95,ESE,107,1.0,9.0,22,0.00,,,0.00,weatherlink.com 1.10,2013-03-28 19:08:00,
2013-03-28 12:23:00,80.2,38.0,29.96,SE,134,6.0,9.0,22,0.00,,,0.00,weatherlink.com 1.10,2013-03-28 19:23:00,
2013-03-28 12:38:00,81.0,38.0,29.95,South,179,7.0,10.0,21,0.00,,,0.00,weatherlink.com 1.10,2013-03-28 19:38:00,
2013-03-28 12:53:00,80.8,37.0,29.95,ESE,113,3.0,9.0,21,0.00,,,0.00,weatherlink.com 1.10,2013-03-28 19:53:00,
2013-03-28 13:08:00,81.4,37.0,29.94,ENE,75,7.0,8.0,20,0.00,,,0.00,weatherlink.com 1.10,2013-03-28 20:08:00,
2013-03-28 13:24:00,82.3,36.0,29.94,SSE,157,2.0,9.0,19,0.00,,,0.00,weatherlink.com 1.10,2013-03-28 20:24:00,
2013-03-28 13:39:00,83.5,36.0,29.93,SE,129,4.0,8.0,18,0.00,,,0.00,weatherlink.com 1.10,2013-03-28 20:39:00,
2013-03-28 13:54:00,83.1,35.0,29.92,NNW,345,3.0,10.0,18,0.00,,,0.00,weatherlink.com 1.10,2013-03-28 20:54:00,
2013-03-28 14:09:00,83.3,36.0,29.91,NNE,30,6.0,8.0,18,0.00,,,0.00,weatherlink.com 1.10,2013-03-28 21:09:00,
2013-03-28 14:24:00,84.0,33.0,29.91,SSE,160,6.0,9.0,16,0.00,,,0.00,weatherlink.com 1.10,2013-03-28 21:24:00,
2013-03-28 14:39:00,84.6,32.0,29.90,East,81,4.0,11.0,15,0.00,,,0.00,weatherlink.com 1.10,2013-03-28 21:39:00,
2013-03-28 14:54:00,83.5,33.0,29.90,East,92,4.0,10.0,16,0.00,,,0.00,weatherlink.com 1.10,2013-03-28 21:54:00,
2013-03-28 15:09:00,84.6,34.0,29.89,SW,228,5.0,9.0,16,0.00,,,0.00,weatherlink.com 1.10,2013-03-28 22:09:00,
2013-03-28 15:24:00,83.7,33.0,29.89,NW,315,2.0,8.0,16,0.00,,,0.00,weatherlink.com 1.10,2013-03-28 22:24:00,
2013-03-28 15:39:00,84.8,32.0,29.89,West,275,3.0,10.0,15,0.00,,,0.00,weatherlink.com 1.10,2013-03-28 22:39:00,
2013-03-28 15:54:00,84.6,32.0,29.88,WNW,291,6.0,7.0,15,0.00,,,0.00,weatherlink.com 1.10,2013-03-28 22:54:00,
2013-03-28 16:10:00,85.5,31.0,29.88,NW,326,0.0,5.0,14,0.00,,,0.00,weatherlink.com 1.10,2013-03-28 23:10:00,
2013-03-28 16:24:00,86.0,30.0,29.88,West,264,5.0,7.0,13,0.00,,,0.00,weatherlink.com 1.10,2013-03-28 23:24:00,
2013-03-28 16:40:00,85.4,31.0,29.88,WSW,252,4.0,10.0,14,0.00,,,0.00,weatherlink.com 1.10,2013-03-28 23:40:00,
2013-03-28 16:54:00,85.4,29.0,29.88,SW,219,5.0,7.0,13,0.00,,,0.00,weatherlink.com 1.10,2013-03-28 23:54:00,
2013-03-28 17:09:00,84.6,27.0,29.88,WNW,289,2.0,8.0,12,0.00,,,0.00,weatherlink.com 1.10,2013-03-29 00:09:00,
2013-03-28 17:24:00,85.2,27.0,29.88,NE,37,0.0,5.0,12,0.00,,,0.00,weatherlink.com 1.10,2013-03-29 00:24:00,
2013-03-28 17:39:00,84.5,27.0,29.88,NW,322,3.0,6.0,12,0.00,,,0.00,weatherlink.com 1.10,2013-03-29 00:39:00,
2013-03-28 17:54:00,85.0,27.0,29.88,WSW,237,3.0,4.0,12,0.00,,,0.00,weatherlink.com 1.10,2013-03-29 00:54:00,
2013-03-28 18:09:00,84.6,27.0,29.88,West,269,3.0,5.0,12,0.00,,,0.00,weatherlink.com 1.10,2013-03-29 01:09:00,
2013-03-28 18:24:00,83.9,28.0,29.88,WNW,285,4.0,4.0,13,0.00,,,0.00,weatherlink.com 1.10,2013-03-29 01:24:00,
2013-03-28 18:39:00,83.0,27.0,29.89,SW,226,1.0,3.0,13,0.00,,,0.00,weatherlink.com 1.10,2013-03-29 01:39:00,
2013-03-28 18:54:00,81.9,28.0,29.89,SSE,163,1.0,1.0,14,0.00,,,0.00,weatherlink.com 1.10,2013-03-29 01:54:00,
2013-03-28 19:09:00,81.1,32.0,29.89,ESE,117,4.0,5.0,17,0.00,,,0.00,weatherlink.com 1.10,2013-03-29 02:09:00,
2013-03-28 19:24:00,80.9,32.0,29.89,ESE,105,2.0,5.0,17,0.00,,,0.00,weatherlink.com 1.10,2013-03-29 02:24:00,
2013-03-28 19:39:00,80.5,32.0,29.89,SE,124,2.0,6.0,17,0.00,,,0.00,weatherlink.com 1.10,2013-03-29 02:39:00,
2013-03-28 19:54:00,79.9,33.0,29.90,SE,129,1.0,5.0,18,0.00,,,0.00,weatherlink.com 1.10,2013-03-29 02:54:00,
2013-03-28 20:09:00,79.5,34.0,29.90,ESE,103,3.0,3.0,19,0.00,,,0.00,weatherlink.com 1.10,2013-03-29 03:09:00,
2013-03-28 20:24:00,79.0,33.0,29.91,ESE,103,3.0,4.0,19,0.00,,,0.00,weatherlink.com 1.10,2013-03-29 03:24:00,
2013-03-28 20:39:00,77.8,34.0,29.91,ENE,58,2.0,5.0,20,0.00,,,0.00,weatherlink.com 1.10,2013-03-29 03:39:00,
2013-03-28 20:54:00,77.3,33.0,29.92,ENE,64,3.0,5.0,20,0.00,,,0.00,weatherlink.com 1.10,2013-03-29 03:54:00,
2013-03-28 21:09:00,77.2,33.0,29.92,East,98,4.0,6.0,20,0.00,,,0.00,weatherlink.com 1.10,2013-03-29 04:09:00,
2013-03-28 21:24:00,76.7,33.0,29.92,ENE,59,4.0,6.0,20,0.00,,,0.00,weatherlink.com 1.10,2013-03-29 04:24:00,
2013-03-28 21:39:00,76.7,33.0,29.93,NE,45,3.0,5.0,20,0.00,,,0.00,weatherlink.com 1.10,2013-03-29 04:39:00,
2013-03-28 21:54:00,76.5,34.0,29.93,NE,43,3.0,5.0,21,0.00,,,0.00,weatherlink.com 1.10,2013-03-29 04:54:00,
2013-03-28 22:09:00,76.4,34.0,29.93,NNE,30,5.0,6.0,21,0.00,,,0.00,weatherlink.com 1.10,2013-03-29 05:09:00,
2013-03-28 22:24:00,76.0,33.0,29.93,NE,40,4.0,6.0,21,0.00,,,0.00,weatherlink.com 1.10,2013-03-29 05:24:00,
2013-03-28 22:39:00,75.8,33.0,29.93,NE,49,3.0,5.0,21,0.00,,,0.00,weatherlink.com 1.10,2013-03-29 05:39:00,
2013-03-28 22:54:00,75.4,34.0,29.93,NE,37,3.0,5.0,22,0.00,,,0.00,weatherlink.com 1.10,2013-03-29 05:54:00,
2013-03-28 23:08:00,74.7,33.0,29.93,NE,37,3.0,4.0,22,0.00,,,0.00,weatherlink.com 1.10,2013-03-29 06:08:00,
2013-03-28 23:24:00,73.5,33.0,29.94,NE,34,4.0,6.0,23,0.00,,,0.00,weatherlink.com 1.10,2013-03-29 06:24:00,
2013-03-28 23:39:00,73.5,33.0,29.93,NE,43,3.0,6.0,23,0.00,,,0.00,weatherlink.com 1.10,2013-03-29 06:39:00,
2013-03-28 23:54:00,73.5,33.0,29.93,NE,39,0.0,4.0,23,0.00,,,0.00,weatherlink.com 1.10,2013-03-29 06:54:00,